STARLINK-32794, 62844

Orbit data source: Space-Track

STARLINK-32794, 62844 is a payload satellite owned by SpaceX/Seattle (US) in LEO that was launched on Mon, 27 Jan 2025 UTC via an FALCON 9 launch vehicle from the Air Force Eastern Test Range (AFETR). Payload-class satellites include a variety of spacecraft equipped with specific instruments for various scientific and technological missions. These include communications satellites like Starlink; space stations such as the ISS; scientific satellites like the Hubble; Earth observation satellites from companies like Planet Labs, Umbra, and HawkEye 360; GPS; miniature CubeSats for education and research; and military/defense satellites.

Loading next visibility...
Identifier
62844, 2025-019R
Orbit
LEO
Country
Flag of USUS
Related business
Manufacturer
SpaceX/Seattle
Mission
Operational Commercial Communications
Bus & Motor
STARLINK V2M, Unknown motor
Mass
730 kg wet, ~700 kg dry
Launch date (UTC)
2025-01-27 (1 year ago)
Launch vehicle
FALCON 9
Launch site
Air Force Eastern Test Range (AFETR)
Object type
Payload
Rocket body
Debris
Shape & HBR
Box + 2 Pan, 17.7 m
Radar Cross Section
33.884 m², Large (>1 m²)

Expand to show TLE details & history
Last TLE update: 17 hours ago

TLE from 17 hours ago
0 STARLINK-32794
1 62844U 25019R   26126.39889881  .00021698  00000-0  79544-3 0  9990
2 62844  43.0021 123.3358 0002235 258.6795 101.3805 15.27588803 71075
Epoch: 2026-05-06T09:34Z
TLE epoch observation values (Epoch: 2026-05-06T09:34:24.857Z)
Latitude
-0.00005°
Longitude
115.47223°
Altitude
483.101 km
Speed
7.626 km/s
True Right ascension
08h 13m 20s
True Declination
0° 00' 00"
Sunlit
Object was in daylight at epoch
Visualization orbit readout
Latitude
Unknown
Longitude
Unknown
Altitude
Unknown
Speed
Unknown
Apparent Right ascension
Unknown
Apparent Declination
Unknown
Sunlit
N/A
Visualization observer readout
Local Sidereal Time
10:39:40
Azimuth
Unknown
Elevation
Unknown
Doppler factor
Unknown
Orbital elements
Apogee altitude
486.501 km
Perigee altitude
483.434 km
Semi-major axis
6,863.105 km
Eccentricity
0.00022
Inclination
43.0021°
RAAN
123.3358°
Arg. of periapsis
258.6795°
True anomaly
101.40561°
Mean anomaly
101.3805°
Eccentric anomaly
101.39305°
Mean motion
3.81735 °/min
Orbital period
94.31 mins
BSTAR
0.00079544
Loading maneuver chart data...
Computing Atmospheric mass density...
Loading historical data...
Loading historical data...
Loading historical data...
Loading historical data...
Loading historical data...
Loading historical data...
Loading historical data...

Documentation

Showing up to 5 results
|